Volver al catálogo

FENGYUN 1C DEB

LostPO
NORAD 38131·DEBRIS·🇨🇳 China

Lanzado May 10, 1999 desde Taiyuan Satellite Launch Center

Loading…

Próximos Pases (próximas 24 horas)

TLE

ObsoletoSource: Space-Track

Época: Dec 24, 2020, 20:58 UTC

1 38131U 99025EQC 20359.87416144  .00001148  00000-0  73321-3 0  9998
2 38131  97.8938  35.4924 0125379 234.5870 124.3538 14.01362866554282

Sigue FENGYUN 1C DEB en tiempo real con AllMySat

Download on the App Store